Tracking 29892 objects as of 21-Nov-2024
HD Live streaming from Space Station
objects crossing your sky now

STARLINK-3536

Track STARLINK-3536 now!
10-day predictions
STARLINK-3536 is classified as:


NORAD ID: 51888
Int'l Code: 2022-022AN
Perigee: 545.9 km
Apogee: 548.0 km
Inclination: 53.2 °
Period: 95.4 minutes
Semi major axis: 6917 km
RCS: Unknown
Launch date: March 3, 2022
Source: United States (US)
Launch site: AIR FORCE EASTERN TEST RANGE (AFETR)
Your satellite tracking list
Your tracking list is empty




NASA's NSSDC Master Catalog

Two Line Element Set (TLE):
1 51888U 22022AN  24325.02364285 -.00002355  00000-0 -13000-3 0  9998
2 51888  53.2183 329.9799 0001580  92.0706 268.0467 15.08817580151597
Source of the keplerian elements: AFSPC